Showing default

COSMOS 2587, 63290

Orbit data source: Space-Track

COSMOS 2587, 63290 is a payload satellite owned by VVKO VKS (CIS) in LEO that was launched on Sun, 16 Mar 2025 UTC via an ANGARA-1.2 launch vehicle from the Plesetsk Missile And Space Complex (PKMTR). Payload-class satellites include a variety of spacecraft equipped with specific instruments for various scientific and technological missions. These include communications satellites like Starlink; space stations such as the ISS; scientific satellites like the Hubble; Earth observation satellites from companies like Planet Labs, Umbra, and HawkEye 360; GPS; miniature CubeSats for education and research; and military/defense satellites.

Loading next visibility...
Identifier
63290, 2025-054C
Orbit
LEO
Country
Flag of CISCIS
Related business
Manufacturer
Resehetnev ISS
Mission
Operational Defense Communications
Bus & Motor
STRELA-3M, Unknown motor
Mass
280 kg wet, 280 kg dry
Launch date (UTC)
2025-03-16 (9 months ago)
Launch vehicle
ANGARA-1.2
Launch site
Plesetsk Missile And Space Complex (PKMTR)
Object type
Payload
Rocket body
Debris
Shape & HBR
Cyl + 1 Ant, 1.6 m
Radar Cross Section
1.583 m², Large (>1 m²)

Expand to show TLE details & history
Last TLE update: 6 days ago

TLE from 6 days ago
0 COSMOS 2587
1 63290U 25054C   25346.17262810  .00000047  00000-0  26896-3 0  9998
2 63290  82.4971 195.0293 0015183  59.5179 300.7398 12.42913004 33626
Epoch: 2025-12-12T04:08Z
TLE epoch observation values (Epoch: 2025-12-12T04:08:35.067Z)
Latitude
-0.00003°
Longitude
51.76512°
Altitude
1,490.881 km
Speed
7.121 km/s
True Right ascension
13h 00m 07s
True Declination
0° 00' 00"
Sunlit
Object was in daylight at epoch
Visualization orbit readout
Latitude
Unknown
Longitude
Unknown
Altitude
Unknown
Speed
Unknown
Apparent Right ascension
Unknown
Apparent Declination
Unknown
Sunlit
N/A
Visualization observer readout
Local Sidereal Time
16:55:52
Azimuth
Unknown
Elevation
Unknown
Doppler factor
Unknown
Orbital elements
Apogee altitude
1,503.579 km
Perigee altitude
1,479.681 km
Semi-major axis
7,869.767 km
Eccentricity
0.00152
Inclination
82.4971°
RAAN
195.0293°
Arg. of periapsis
59.5179°
True anomaly
300.59012°
Mean anomaly
300.7398°
Eccentric anomaly
300.66497°
Mean motion
3.10885 °/min
Orbital period
115.8 mins
BSTAR
0.00026896
Loading maneuver chart data...
Computing Atmospheric mass density...
Loading historical data...
Loading historical data...
Loading historical data...
Loading historical data...
Loading historical data...
Loading historical data...
Loading historical data...
Other satellites on launch #54 in the year 2025 (2025-03-16 UTC)

Documentation

Showing up to 5 results
|